Total_Precipitation_Accumulation
0.00 0.00 0.00 0.01 0.01 0.02 0.03 0.02 0.04 0.03 0.03 0.03 0.05 0.05 0.02 0.02 0.01 0.02 0.03 0.05 0.05 0.03 0.02 0.01 0.01 0.02 0.02 0.03 0.03 0.02 0.01 0.01 0.02 0.01 0.02 0.02 0.02 0.01 0.01 0.01 0.00 0.00 0.00
0.00 0.00 0.00 0.01 0.01 0.02 0.06 0.03 0.03 0.03 0.03 0.07 0.05 0.04 0.03 0.02 0.02 0.03 0.04 0.07 0.03 0.02 0.01 0.00 0.01 0.01 0.01 0.01 0.01 0.02 0.01 0.00 0.00 0.00 0.00 0.00 0.03 0.02 0.01 0.00 0.03 0.03 0.01
0.00 0.00 0.00 0.01 0.02 0.03 0.07 0.03 0.04 0.06 0.08 0.05 0.03 0.04 0.03 0.02 0.02 0.03 0.05 0.09 0.02 0.01 0.00 0.00 0.00 0.00 0.00 0.00 0.00 0.00 0.00 0.00 0.00 0.01 0.00 0.01 0.07 0.06 0.05 0.12 0.20 0.24 0.29
0.00 0.00 0.00 0.02 0.03 0.06 0.04 0.06 0.04 0.06 0.06 0.04 0.04 0.05 0.03 0.02 0.03 0.03 0.06 0.07 0.01 0.00 0.00 0.00 0.00 0.00 0.00 0.00 0.00 0.00 0.00 0.01 0.01 0.02 0.00 0.01 0.03 0.13 0.14 0.16 0.14 0.14 0.14
0.00 0.00 0.00 0.02 0.04 0.08 0.04 0.05 0.05 0.05 0.05 0.04 0.05 0.06 0.04 0.03 0.03 0.03 0.04 0.04 0.01 0.00 0.00 0.00 0.00 0.00 0.00 0.00 0.00 0.00 0.01 0.01 0.00 0.00 0.00 0.01 0.02 0.12 0.11 0.08 0.06 0.06 0.05
0.00 0.00 0.00 0.03 0.03 0.09 0.04 0.04 0.06 0.05 0.05 0.04 0.07 0.06 0.09 0.07 0.05 0.03 0.02 0.01 0.00 0.00 0.00 0.00 0.00 0.00 0.00 0.00 0.00 0.02 0.01 0.00 0.00 0.01 0.01 0.04 0.11 0.25 0.15 0.08 0.06 0.05 0.04
0.00 0.00 0.01 0.05 0.06 0.09 0.07 0.04 0.08 0.12 0.07 0.06 0.08 0.07 0.12 0.08 0.05 0.01 0.00 0.00 0.00 0.00 0.00 0.00 0.00 0.00 0.00 0.01 0.01 0.00 0.00 0.00 0.02 0.03 0.07 0.15 0.21 0.19 0.11 0.05 0.03 0.04 0.03
0.01 0.01 0.03 0.06 0.05 0.09 0.12 0.14 0.12 0.15 0.13 0.10 0.10 0.11 0.08 0.06 0.02 0.00 0.00 0.00 0.00 0.00 0.00 0.00 0.00 0.00 0.01 0.01 0.00 0.00 0.00 0.02 0.05 0.06 0.06 0.04 0.06 0.03 0.02 0.00 0.01 0.01 0.01
0.02 0.02 0.05 0.07 0.06 0.10 0.21 0.25 0.18 0.15 0.15 0.09 0.09 0.11 0.06 0.02 0.00 0.00 0.00 0.00 0.00 0.00 0.00 0.01 0.01 0.02 0.02 0.01 0.00 0.00 0.01 0.03 0.02 0.01 0.01 0.01 0.04 0.04 0.04 0.02 0.01 0.01 0.01
0.08 0.09 0.12 0.13 0.13 0.15 0.25 0.28 0.25 0.14 0.15 0.11 0.06 0.04 0.02 0.00 0.00 0.00 0.00 0.00 0.00 0.00 0.01 0.01 0.02 0.03 0.01 0.00 0.00 0.00 0.01 0.00 0.00 0.00 0.01 0.01 0.02 0.02 0.02 0.01 0.00 0.01 0.02
0.21 0.24 0.26 0.18 0.16 0.19 0.30 0.31 0.30 0.25 0.17 0.12 0.05 0.01 0.00 0.00 0.00 0.00 0.00 0.00 0.00 0.01 0.02 0.03 0.04 0.04 0.00 0.00 0.00 0.00 0.00 0.00 0.00 0.00 0.01 0.03 0.02 0.02 0.02 0.01 0.01 0.01 0.02
0.50 0.43 0.30 0.29 0.29 0.27 0.29 0.31 0.28 0.25 0.19 0.09 0.02 0.00 0.00 0.00 0.00 0.00 0.00 0.00 0.00 0.03 0.03 0.02 0.03 0.01 0.00 0.00 0.00 0.00 0.00 0.00 0.00 0.00 0.00 0.00 0.00 0.01 0.00 0.00 0.01 0.03 0.03
1.41 1.21 1.08 0.80 0.60 0.58 0.37 0.32 0.28 0.19 0.16 0.12 0.03 0.00 0.00 0.00 0.00 0.00 0.00 0.00 0.01 0.04 0.03 0.03 0.01 0.00 0.00 0.00 0.00 0.00 0.00 0.00 0.00 0.00 0.00 0.00 0.00 0.00 0.01 0.02 0.02 0.02 0.02
2.27 1.89 1.28 0.97 0.79 0.70 0.74 0.42 0.38 0.26 0.18 0.12 0.03 0.00 0.00 0.00 0.00 0.00 0.00 0.00 0.02 0.03 0.01 0.01 0.00 0.00 0.00 0.00 0.00 0.00 0.00 0.00 0.00 0.00 0.00 0.00 0.00 0.00 0.01 0.01 0.01 0.01 0.01
2.40 2.48 1.82 1.17 0.98 0.89 1.10 1.13 0.91 0.82 0.50 0.39 0.16 0.01 0.00 0.00 0.00 0.00 0.00 0.00 0.01 0.01 0.00 0.00 0.00 0.00 0.00 0.00 0.00 0.00 0.00 0.00 0.00 0.00 0.00 0.00 0.00 0.00 0.00 0.00 0.00 0.00 0.00
2.74 2.62 2.95 1.93 1.65 1.14 1.20 1.27 1.31 1.21 1.01 0.59 0.41 0.10 0.01 0.00 0.00 0.00 0.00 0.00 0.00 0.00 0.00 0.00 0.00 0.00 0.00 0.00 0.00 0.00 0.00 0.00 0.00 0.00 0.00 0.00 0.00 0.00 0.00 0.00 0.00 0.00 0.00
2.81 2.45 2.64 2.82 2.38 2.00 1.71 1.39 1.08 1.20 1.27 0.95 0.46 0.27 0.02 0.00 0.00 0.00 0.00 0.00 0.00 0.00 0.00 0.00 0.00 0.00 0.00 0.00 0.00 0.00 0.00 0.00 0.00 0.00 0.00 0.00 0.00 0.00 0.00 0.00 0.00 0.00 0.00
3.30 2.50 2.13 2.63 2.69 2.83 2.11 1.81 1.25 1.14 1.05 1.00 0.73 0.26 0.03 0.00 0.00 0.00 0.00 0.00 0.00 0.00 0.00 0.00 0.00 0.00 0.00 0.00 0.00 0.00 0.00 0.00 0.00 0.00 0.00 0.00 0.00 0.00 0.00 0.00 0.00 0.00 0.00
1.54 2.61 2.90 2.25 2.50 2.66 2.20 2.06 1.47 1.24 1.05 0.94 0.85 0.58 0.04 0.00 0.00 0.00 0.00 0.00 0.00 0.00 0.00 0.00 0.00 0.00 0.00 0.00 0.00 0.00 0.00 0.00 0.00 0.00 0.00 0.00 0.00 0.00 0.00 0.00 0.00 0.00 0.00
0.43 0.96 2.49 3.30 3.09 2.56 1.95 1.58 1.36 0.99 0.94 0.89 0.77 0.62 0.11 0.00 0.00 0.00 0.00 0.00 0.00 0.00 0.00 0.00 0.00 0.00 0.00 0.00 0.00 0.00 0.00 0.00 0.00 0.00 0.00 0.00 0.00 0.00 0.00 0.00 0.00 0.00 0.00
0.35 0.42 0.83 2.39 3.54 3.24 2.44 1.22 0.94 0.73 0.70 0.66 0.76 0.50 0.12 0.00 0.00 0.00 0.00 0.00 0.00 0.00 0.00 0.00 0.00 0.00 0.00 0.00 0.00 0.00 0.00 0.00 0.00 0.00 0.00 0.00 0.00 0.00 0.00 0.00 0.00 0.00 0.00
0.51 0.46 0.38 0.85 1.73 2.32 2.80 2.15 0.80 0.51 0.41 0.45 0.45 0.47 0.22 0.03 0.00 0.00 0.00 0.00 0.00 0.00 0.00 0.00 0.00 0.00 0.00 0.00 0.00 0.00 0.00 0.00 0.00 0.00 0.00 0.00 0.00 0.00 0.00 0.00 0.00 0.00 0.00
0.28 0.59 0.76 0.47 0.67 0.98 1.25 2.00 1.72 0.63 0.32 0.30 0.29 0.28 0.26 0.14 0.02 0.00 0.00 0.00 0.00 0.00 0.00 0.00 0.00 0.00 0.00 0.00 0.00 0.00 0.00 0.00 0.00 0.00 0.00 0.00 0.00 0.00 0.00 0.00 0.00 0.00 0.00
0.26 0.56 0.94 0.74 0.81 0.76 0.60 0.65 0.94 1.13 0.54 0.21 0.17 0.12 0.15 0.14 0.04 0.00 0.00 0.00 0.00 0.00 0.00 0.00 0.00 0.00 0.00 0.00 0.00 0.00 0.00 0.00 0.00 0.00 0.00 0.00 0.00 0.00 0.00 0.00 0.00 0.00 0.00
0.19 0.32 0.62 1.04 0.89 0.64 0.75 0.78 0.51 0.44 0.57 0.44 0.20 0.13 0.06 0.08 0.02 0.00 0.00 0.00 0.00 0.00 0.00 0.00 0.00 0.00 0.00 0.00 0.00 0.00 0.00 0.00 0.00 0.00 0.00 0.00 0.00 0.00 0.00 0.00 0.00 0.00 0.00
0.16 0.21 0.44 1.03 0.96 0.63 0.54 0.59 0.74 0.57 0.49 0.55 0.42 0.29 0.10 0.02 0.00 0.00 0.00 0.00 0.00 0.00 0.00 0.00 0.00 0.00 0.00 0.00 0.00 0.00 0.00 0.00 0.00 0.00 0.00 0.00 0.00 0.00 0.00 0.00 0.00 0.00 0.00